Regional Weather Roundup
Issued by NWS Kansas City/Pleasant Hill, MO

Home | Current Version | Previous Version | Graphics & Text | Print | Product List | Glossary Off
Versions: 1 2 3 4 5 6 7 8 9 10 11 12 13 14 15 16 17 18 19 20 21 22 23 24 25 26 27 28 29 30 31 32 33 34 35 36 37 38 39 40 41 42 43 44 45 46 47 48 49 50

000
ASUS43 KEAX 291610
RWREAX

WEATHER ROUNDUP FOR EASTERN KANSAS AND NORTHWEST MISSOURI
NATIONAL WEATHER SERVICE KANSAS CITY/PLEASANT HILL MO
1100 AM CDT WED JUL 29 2015

KSZ040-057-103>105-MOZ028-029-037-043-291700-
...KANSAS CITY METROPOLITAN AREA...

CITY           SKY/WX    TMP DP  RH WIND       PRES   REMARKS
K.C. INTL      CLOUDY    75  71  87 N5        30.14S
K.C. DOWNTOWN  CLOUDY    78  71  79 NE8       30.11F
LEES SUMMIT    PTSUNNY   75  70  84 NE10      30.13F
OLATHE - IXD   CLOUDY    74  71  91 NE9       30.13R
OLATHE - OJC   CLOUDY    74  70  87 N12       30.12R
LAWRENCE       CLOUDY    75  70  84 N9        30.13R

$$

MOZ001>008-011>017-020>025-030>033-038>040-044>046-053-054-291700-
...NORTHERN AND CENTRAL MISSOURI...

CITY           SKY/WX    TMP DP  RH WIND       PRES   REMARKS
ST. JOSEPH     CLOUDY    78  74  87 N5        30.12F
MOSBY          CLOUDY    73  72  94 NE3       30.12F
WARRENSBURG    PTSUNNY   79  70  73 N8        30.12F
WHITEMAN AFB   MOSUNNY   80  69  71 N10       30.12F
CLINTON          N/A     82  72  69 NE13      30.12S
SEDALIA        MOSUNNY   80  70  71 N9        30.14R
WARSAW         NOT AVBL
CHILLICOTHE      N/A     80  72  76 VRB3      30.14R
KIRKSVILLE     PTSUNNY   80  66  62 N9        30.13R

$$

MOZ041-047>049-056>058-063>065-088>090-097-291700-
...EASTERN AND SOUTHERN MISSOURI...

CITY           SKY/WX    TMP DP  RH WIND       PRES   REMARKS
ST. LOUIS INTL PTSUNNY   84  72  65 NW12G21   30.05R
SPIRIT OF STL  PTSUNNY   82  73  74 N13       30.05R
COLUMBIA       PTSUNNY   79  70  74 N10       30.10F
JEFFERSON CITY MOSUNNY   80  69  69 N10       30.09S
ROLLA          MOSUNNY   83  73  72 NW10      30.08R
OSAGE BEACH    PTSUNNY   82  70  65 N7        30.11R
SPRINGFIELD      N/A     88  71  57 W5        30.10S HX  94
BRANSON        SUNNY     86  73  66 CALM      30.13S HX  93
JOPLIN         SUNNY     90  71  53 SE6       30.10S HX  96
WEST PLAINS    SUNNY     90  73  57 VRB6      30.11S HX  98

$$

IAZ060-094-KSZ022-034>040-054-083-096-NEZ052-066-093-291700-
...KANSAS...SOUTHEAST NEBRASKA AND IOWA...

CITY           SKY/WX    TMP DP  RH WIND       PRES   REMARKS
TOPEKA         CLOUDY    77  71  82 NE5       30.15R
MANHATTAN      CLOUDY    75  69  81 VRB5      30.17F
EMPORIA        CLOUDY    74  70  87 NW5       30.17R
CHANUTE        SUNNY     85  70  60 SE10      30.09F
WICHITA        PTSUNNY   77  68  73 NE14      30.13F
OMAHA          MOSUNNY   81  64  56 N5        30.19R
LINCOLN        SUNNY     82  53  36 CALM      30.21F
FALLS CITY     PTSUNNY   79  72  79 N6        30.15S
LAMONI           N/A    N/A N/A N/A MISG      30.14R
DES MOINES     PTSUNNY   81  52  36 NW15      30.11S

$$




USA.gov is the U.S. government's official web portal to all federal, state and local government web resources and services.